TimeCDT,TemperatureF,Dew PointF,Humidity,Sea Level PressureIn,VisibilityMPH,Wind Direction,Wind SpeedMPH,Gust SpeedMPH,PrecipitationIn,Events,Conditions,WindDirDegrees,DateUTC
12:53 AM,70.0,68.0,93,29.87,8.0,Calm,Calm,-,N/A,,Clear,0,2012-09-04 05:53:00
1:53 AM,70.0,68.0,93,29.87,7.0,Calm,Calm,-,N/A,,Clear,0,2012-09-04 06:53:00
2:53 AM,70.0,66.9,90,29.86,5.0,Calm,Calm,-,N/A,,Clear,0,2012-09-04 07:53:00
3:53 AM,69.1,66.9,93,29.88,4.0,Calm,Calm,-,N/A,,Clear,0,2012-09-04 08:53:00
4:53 AM,72.0,68.0,87,29.88,7.0,North,3.5,-,N/A,,Mostly Cloudy,360,2012-09-04 09:53:00
5:28 AM,71.6,69.8,94,29.91,6.0,North,3.5,-,N/A,,Overcast,360,2012-09-04 10:28:00
5:53 AM,73.0,70.0,90,29.91,6.0,North,6.9,-,N/A,,Overcast,360,2012-09-04 10:53:00
6:14 AM,71.6,68.0,88,29.92,10.0,Variable,5.8,-,N/A,,Scattered Clouds,0,2012-09-04 11:14:00
6:53 AM,72.0,68.0,87,29.92,10.0,NNE,6.9,-,N/A,,Mostly Cloudy,30,2012-09-04 11:53:00
7:53 AM,72.0,69.1,91,29.90,10.0,ENE,3.5,-,0.00,,Mostly Cloudy,70,2012-09-04 12:53:00
8:53 AM,73.0,69.1,87,29.88,10.0,SSW,4.6,-,N/A,,Clear,210,2012-09-04 13:53:00
9:53 AM,78.1,71.1,79,29.89,10.0,SSW,4.6,-,N/A,,Clear,200,2012-09-04 14:53:00
10:53 AM,80.1,71.1,74,29.89,10.0,WSW,6.9,-,N/A,,Clear,250,2012-09-04 15:53:00
11:53 AM,82.9,71.1,67,29.88,10.0,West,6.9,-,N/A,,Clear,280,2012-09-04 16:53:00
12:53 PM,84.0,72.0,67,29.88,10.0,NNE,5.8,-,N/A,,Scattered Clouds,20,2012-09-04 17:53:00
1:53 PM,84.0,70.0,63,29.87,10.0,NNE,6.9,-,N/A,,Clear,30,2012-09-04 18:53:00
2:53 PM,87.1,71.1,59,29.85,10.0,Variable,4.6,-,N/A,,Clear,0,2012-09-04 19:53:00
3:53 PM,86.0,69.1,57,29.85,10.0,NNE,4.6,-,N/A,,Clear,20,2012-09-04 20:53:00
4:53 PM,86.0,69.1,57,29.85,10.0,NE,4.6,-,N/A,,Clear,40,2012-09-04 21:53:00
5:53 PM,82.9,68.0,60,29.85,10.0,ENE,4.6,-,N/A,,Clear,70,2012-09-04 22:53:00
6:53 PM,79.0,69.1,72,29.84,10.0,Calm,Calm,-,N/A,,Clear,0,2012-09-04 23:53:00
7:53 PM,73.9,69.1,85,29.85,10.0,East,3.5,-,N/A,,Clear,90,2012-09-05 00:53:00
8:53 PM,72.0,68.0,87,29.86,10.0,East,3.5,-,N/A,,Clear,80,2012-09-05 01:53:00
9:53 PM,71.1,66.9,87,29.85,10.0,East,3.5,-,N/A,,Clear,90,2012-09-05 02:53:00
10:53 PM,70.0,66.9,90,29.86,10.0,ESE,3.5,-,N/A,,Clear,110,2012-09-05 03:53:00
11:53 PM,69.1,66.9,93,29.87,10.0,Calm,Calm,-,N/A,,Clear,0,2012-09-05 04:53:00